Aérodrome :
LOGIN :

S'inscrire | Disclaimer

   EN    FR    IT 

 










Légende :    VFR   VFR Marginal   IFR   IFR Intensif   IFR Très Intensif
Visi : 
Plafond : 
>= 8 km
>= 3000ft
5 à 8 km
1000 à 3000 ft
1500m à 5 km
500 à 1000 ft
800 à 1500m
200 à 500 ft
< 800m
< 200 ft
Symboles :   Orages  Brouillard  Fortes neiges  Fortes précipitations  Vent > 20 kt
SIGMETs :   Divers  Orages  Givrage  Turbulence  Onde Orograph.  Cendres Volcan.







- Altitude de l'aérodrome : 776 ft
- Code IATA : RMS


ETAR - Ramstein Air Base

DERNIER METAR :
  • 240556Z AUTO 00000KT 9999 CLR 19/14 A3002 RMK AO2 SLP156 T01880138 10188 20127 53003 $

METARs EXPIRÉS :
  • 240456Z AUTO 00000KT 9999 CLR 16/13 A3002 RMK AO2 SLP157 T01590134 $
  • 240356Z AUTO 00000KT 9999 CLR 14/13 A3001 RMK AO2 SLP154 T01370127 $

TAF TAF ETAR
Valide du 24 à 02h jusqu'au 25 à 08h UTC


240213Z 2402/2508 VRB06KT 9999 SKC QNH2997INS TX35/2414Z TN13/2403Z
Pas de NOTAMs connus pour ce terrain.



MET'MAP, la Météo Aéronautique d'un coup d'oeil ! - Copyright ORBIFLY Décembre 2007 - Disclaimer

ORBIFLY MET'MAP TEAM :

Programmation & Développement : Alexandra Zaïnal
Conception & Développement : Baudouin d'Aumeries
Co-Programmation & Développement : Marc-Olivier Méhu
Soutien technique & logistique : Manuel Goepfert

Contact : metmap@orbifly.com




SOURCES & CREDITS :

   NOAA